Effective Sunday, March 17, 2024, the National Weather Service National Data Buoy Center will discontinue its Dial-A-Buoy Interactive Voice Response system. For more information, see Service Change Notice 24-06 (PDF).

Station BSCA1 - Bon Secour, AL Image indicating link to RSS feed of recent meteorological observations for station BSCA1


Conditions at BSCA1 as of
(4:30 am CST)
1030 GMT on 03/03/2024:
Note: This report is more than two hours old
     

Click on the graph icon in the table below to see a time series plot of the last five days of that observation.

5-day plot - Atmospheric Pressure Atmospheric Pressure (PRES):30.06 in
5-day plot - Air Temperature Air Temperature (ATMP): 64.6 °F
Previous observations
TIME
(CST)
5-day plot - Wind Direction
WDIR
 
5-day plot - Wind Speed
WSPD
kts
5-day plot - Wind Gust
GST
kts
5-day plot - Wave Height
WVHT
ft
5-day plot - Dominant Wave Period
DPD
sec
5-day plot - Average Wave Period
APD
sec
5-day plot - Mean Wave Direction
MWD
 
5-day plot - Atmospheric Pressure
PRES
in
5-day plot - Pressure Tendency
PTDY
in
5-day plot - Air Temperature
ATMP
°F
5-day plot - Water Temperature
WTMP
°F
5-day plot - Dew Point
DEWP
°F
5-day plot - Salinity
SAL
psu
5-day plot - Visibility
VIS
nmi
5-day plot - Tide (above MLLW)
TIDE
ft
2024-03-03 04:00 am-------30.04-0.03 64.8-----
2024-03-03 03:30 am-------30.05- 64.8-----
2024-03-03 03:00 am-------30.06-0.01 64.6-----
2024-03-03 02:30 am-------30.05- 64.6-----
2024-03-03 02:00 am-------30.08+0.00 64.2-----
2024-03-03 01:30 am-------30.06- 64.0-----
2024-03-03 01:00 am-------30.07-0.02 64.2-----
2024-03-03 12:30 am-------30.09- 64.0-----
2024-03-03 12:00 am-------30.08+0.00 63.7-----
2024-03-02 11:30 pm-------30.09- 64.0-----
2024-03-02 11:00 pm-------30.08+0.03 64.8-----
2024-03-02 10:30 pm-------30.07- 64.4-----
2024-03-02 10:00 pm-------30.09+0.04 65.1-----
2024-03-02 09:30 pm-------30.06- 65.7-----
2024-03-02 09:00 pm-------30.08+0.02 65.1-----
2024-03-02 08:30 pm-------30.06- 66.2-----
2024-03-02 08:00 pm-------30.05+0.00 66.6-----
2024-03-02 07:30 pm-------30.04- 66.6-----
2024-03-02 07:00 pm-------30.05-0.01 67.1-----
2024-03-02 06:30 pm-------30.04- 66.7-----
2024-03-02 06:00 pm-------30.05+0.00 66.4-----
2024-03-02 05:30 pm-------30.03- 65.3-----
2024-03-02 05:00 pm-------30.05-0.01 64.6-----
2024-03-02 04:30 pm-------30.04- 64.2-----
2024-03-02 04:00 pm-------30.06-0.02 64.2-----
2024-03-02 03:30 pm-------30.04- 64.0-----
2024-03-02 03:00 pm-------30.06-0.04 63.5-----
2024-03-02 02:30 pm-------30.05- 63.7-----
2024-03-02 02:00 pm-------30.06-0.05 63.1-----
2024-03-02 01:30 pm-------30.07- 64.0-----
2024-03-02 01:00 pm-------30.08-0.05 63.7-----
2024-03-02 12:30 pm-------30.10- 63.0-----
2024-03-02 12:00 pm-------30.10-0.02 62.6-----
2024-03-02 11:30 am-------30.11- 64.2-----
2024-03-02 11:00 am-------30.11-0.01 64.6-----
2024-03-02 10:30 am-------30.12- 63.5-----
2024-03-02 10:00 am-------30.14+0.04 63.3-----
2024-03-02 09:30 am-------30.12- 63.1-----
2024-03-02 09:00 am-------30.12+0.03 62.1-----
2024-03-02 08:30 am-------30.13- 62.2-----
2024-03-02 08:00 am-------30.12+0.07 62.4-----
2024-03-02 07:30 am-------30.10- 62.2-----
2024-03-02 07:00 am-------30.10+0.04 61.9-----